Regional Weather Roundup
Issued by NWS Cleveland, OH

Home | Current Version | Previous Version | Graphics & Text | Print | Product List | Glossary On
Versions: 1 2 3 4 5 6 7 8 9 10 11 12 13 14 15 16 17 18 19 20 21 22 23 24 25 26 27 28 29 30 31 32 33 34 35 36 37 38 39 40 41 42 43 44 45 46 47 48 49 50
000
ASUS41 KCLE 260502
RWRCLE
OHIO REGIONAL WEATHER ROUNDUP
NATIONAL WEATHER SERVICE CLEVELAND, OH
1200 AM EST FRI DEC 26 2014

NOTE: "FAIR" INDICATES FEW OR NO CLOUDS BELOW 12,000 FEET WITH NO
SIGNIFICANT WEATHER AND/OR OBSTRUCTIONS TO VISIBILITY.

OHZ001>008-015>018-024>027-034-035-043-044-260600-
   NORTHWEST OHIO

CITY           SKY/WX    TMP DP  RH WIND       PRES   REMARKS
DEFIANCE       PTCLDY    35  31  85 S9        30.13F WCI  28
FINDLAY        CLEAR     33  29  85 S9        30.13F WCI  25
TOLEDO EXPRESS PTCLDY    32  29  88 S6        30.13S WCI  26
TOLEDO EXEC    PTCLDY    33  28  81 S9        30.14S WCI  25
LIMA           CLEAR     35  30  82 S9        30.13F WCI  28
$$

OHZ009>014-019>023-028>033-038-089-260600-
   NORTHEAST OHIO

CITY           SKY/WX    TMP DP  RH WIND       PRES   REMARKS
CLE-HOPKINS    MOCLDY    36  28  73 SW9       30.20S
CLE-LAKEFRONT  CLEAR     38  28  67 SW13G21   30.17F
CUY CO. ARPT   NOT AVBL
LORAIN-ELYRIA  CLEAR     34  29  82 S9        30.17S WCI  27
ASHTABULA      PTCLDY    35  27  72 SW10      30.17R WCI  27
AKRON-CANTON   CLOUDY    38  28  67 SW12      30.18S
WOOSTER        CLOUDY    35  29  78 SW8       30.18S WCI  29
MANSFIELD      CLEAR     33  29  85 S8        30.15F WCI  26
YOUNGSTOWN     CLOUDY    37  28  70 SW12      30.17R
$$

OHZ042-051>053-060>062-070>072-077>081-260600-
  SOUTHWEST OHIO

CITY           SKY/WX    TMP DP  RH WIND       PRES   REMARKS
CINC-COVINGTON CLEAR     33  27  78 S3        30.17S
CINC-LUNKEN    FOG       26  26 100 CALM      30.20F VSB 3/4
HAMILTON       CLEAR     33  29  85 CALM      30.19S
DAYTON         CLEAR     35  30  82 S7        30.17R WCI  29
WRIGHT-PAT AFB CLEAR     31  29  91 S1        30.17S
DAYTON GENERAL CLEAR     33  30  88 S7        30.16S WCI  27
WILMINGTON     CLEAR     32  28  85 S7        30.17S WCI  26
$$

OHZ036-037-039>041-045>050-054>059-063>069-073>076-082>088-260600-
  CENTRAL AND SOUTHEAST OHIO

CITY           SKY/WX    TMP DP  RH WIND       PRES   REMARKS
COLUMBUS       CLEAR     34  28  79 SE6       30.17F WCI  29
OSU AIRPORT    CLEAR     34  29  82 S6        30.17F WCI  29
BOLTON FIELD   NOT AVBL
RICKENBACK AFB CLEAR     33  29  86 SE5       30.18F WCI  28
NEWARK         MOCLDY    36  30  79 S5        30.17F
MARION         CLEAR     32  28  85 S8        30.16F WCI  25
LANCASTER      CLEAR     32  28  85 SE6       30.18F WCI  26
ZANESVILLE     MOCLDY    35  28  75 SE5       30.20F
NEW PHILLY     CLOUDY    39  29  67 S5        30.21F
$$


USA.gov is the U.S. government's official web portal to all federal, state and local government web resources and services.